Showing default

HAMMER, 59148

Orbit data source: Space-Track

HAMMER, 59148 is a payload satellite owned by Open Cosmos (ES) in SSO that was launched on Mon, 04 Mar 2024 UTC via an FALCON 9 launch vehicle from the Air Force Western Test Range (AFWTR). Payload-class satellites include a variety of spacecraft equipped with specific instruments for various scientific and technological missions. These include communications satellites like Starlink; space stations such as the ISS; scientific satellites like the Hubble; Earth observation satellites from companies like Planet Labs, Umbra, and HawkEye 360; GPS; miniature CubeSats for education and research; and military/defense satellites.

Loading next visibility...
Identifier
59148, 2024-043BC
Orbit
SSO
Last TLE update
7 hours ago
Origin
Manufacturer
Open Cosmos
Mission
Operational Commercial Com/MetRO
Bus & Motor
CUBESAT 6U, Unknown motor
Mass
~10 kg wet, ~10 kg dry
Launch date (UTC)
2024-03-04 (1 year ago)
Launch vehicle
FALCON 9
Launch site
Air Force Western Test Range (AFWTR)
Object type
Payload
Rocket body
Debris
Shape & HBR
Box + 2 Pan, 1 m
Radar Cross Section
0.063 m², Medium (>0.1 m² and < 1m²)

Expand to show TLE details & history

TLE from 7 hours ago
0 HAMMER
1 59148U 24043BC  25171.14135321  .00008599  00000-0  25399-3 0  9998
2 59148  97.5093 303.3850 0009370  48.9411 311.2640 15.35166547 72010
Epoch: 2025-06-20T03:23Z
TLE epoch observation values (Epoch: 2025-06-20T03:23:32.917Z)
Latitude
-0.00003°
Longitude
-16.1011°
Altitude
459.31 km
Speed
7.639 km/s
True Right ascension
20h 13m 32s
True Declination
0° 00' 00"
Sunlit
Object was in full shadow at epoch
Visualization orbit readout
Latitude
82.49108°
Longitude
-99.81645°
Altitude
469.14 km
Speed
7.641 km/s
Apparent Right ascension
09h 38m 00s
Apparent Declination
28° 05' 34"
Sunlit
Object is in daylight
Visualization observer readout
Local Sidereal Time
20:57:11
Azimuth
350.343° N
Elevation
-21.332°
Doppler factor
1
Orbital elements
Apogee altitude
463.781 km
Perigee altitude
450.971 km
Semi-major axis
6,835.513 km
Eccentricity
0.00094
Inclination
97.5093°
RAAN
303.385°
Arg. of periapsis
48.9411°
True anomaly
Unknown
Mean anomaly
311.264°
Eccentric anomaly
Unknown
Mean motion
3.84049 °/min
Orbital period
93.74 mins
BSTAR
0.00025399
Loading maneuver chart data...
Loading SW <> Apogee altitude chart data...
Loading historical data...
Loading historical data...
Loading historical data...
Loading historical data...
Loading historical data...
Loading historical data...
Loading historical data...

HAMMER Visibility forecast

Observer location: undefined°, undefined°

Span
Click to sort rows by Start time (UTC) header in descending order
Start Az.
Max El. time (UTC)
Max El. Az.
Max El.
End time (UTC)
End Az.
5 mins2025-06-20 21:10:10.949Z39.852° NE2025-06-20 21:12:10.949Z81.48° E25.715°2025-06-20 21:15:10.949Z156.084° SSE
5 mins2025-06-21 09:15:10.949Z199.907° SSW2025-06-21 09:17:10.949Z262.333° W32.922°2025-06-21 09:20:10.949Z331.577° NNW
|